Wetbulb
39.71 33.40 29.20 33.35 35.16 36.18 33.79 30.92 30.73 32.82 33.59 30.78 31.03 32.28 34.88 37.08 36.37 35.55 35.98 36.84 37.24 38.51 42.56 43.29 43.30 42.97 43.00 42.79 42.65 42.81 42.52 42.44 41.28 39.61 38.53 37.96 37.22 38.49 38.98 40.05 41.42 41.42 41.49 41.96
33.94 29.04 36.09 38.36 37.76 35.72 32.95 29.35 29.47 30.73 33.12 29.46 30.04 31.13 35.39 36.82 36.81 36.67 36.51 36.46 37.53 38.49 40.86 42.16 41.66 41.70 41.65 41.45 42.03 42.09 42.06 41.09 40.34 39.16 37.96 37.23 36.64 37.11 37.93 39.35 39.77 40.69 40.99 41.38
31.08 34.00 37.73 36.04 32.40 32.36 30.55 29.27 29.53 28.06 30.76 31.07 28.78 28.44 33.20 36.14 37.00 37.50 36.98 38.21 38.64 38.27 40.70 40.52 41.12 40.38 40.64 40.29 40.26 41.13 40.81 40.00 39.06 38.60 37.85 37.21 36.92 36.57 36.23 37.20 37.94 39.07 40.11 40.16
33.41 35.92 34.25 31.76 32.32 32.77 26.80 32.39 31.42 30.26 26.87 23.30 30.21 20.91 31.77 34.44 34.33 35.89 36.86 36.40 37.43 38.56 41.76 41.29 40.83 40.13 40.14 39.83 40.40 40.38 40.20 39.01 38.97 37.88 35.99 34.61 33.31 32.82 34.43 35.59 36.50 37.39 38.56 38.57
30.83 31.17 30.37 30.94 32.60 34.94 30.06 32.67 30.68 30.60 25.92 24.51 25.31 21.22 29.66 33.84 33.21 34.18 35.42 36.71 37.20 39.20 41.02 40.66 40.32 40.90 40.29 40.03 38.57 38.55 38.44 37.99 37.51 36.61 35.57 33.77 32.99 33.70 34.58 34.84 34.62 35.36 36.44 37.47
30.28 34.14 33.32 31.97 32.88 32.84 33.83 31.21 30.56 28.56 26.77 16.74 26.51 24.47 26.71 30.03 33.30 34.66 36.10 36.94 38.46 39.76 40.39 40.14 40.36 40.26 39.08 39.07 38.53 37.53 36.92 36.57 36.80 35.70 34.92 33.68 32.50 32.42 32.74 32.97 32.85 33.96 34.71 35.23
28.54 29.21 31.80 34.05 28.82 32.66 31.66 26.52 21.10 17.22 14.03 16.86 26.03 22.57 27.81 31.75 32.90 35.88 36.27 36.79 38.06 39.34 38.42 38.16 37.07 37.01 37.99 37.87 37.33 36.89 36.13 35.34 35.46 34.71 34.23 33.85 33.12 32.58 31.85 32.09 33.29 32.80 32.88 33.29
24.20 21.23 28.48 32.05 30.16 27.21 27.35 28.20 26.15 15.09 19.36 20.32 23.13 18.01 27.78 33.06 35.93 36.74 37.85 38.28 39.09 38.63 38.74 37.60 37.21 37.14 37.20 37.46 36.41 35.67 34.90 34.17 34.51 34.00 33.65 33.68 33.51 32.50 32.21 32.03 32.63 32.52 32.23 32.63
26.59 25.05 29.51 30.94 32.38 31.34 26.81 22.22 27.91 22.00 15.61 16.49 23.44 26.50 33.05 32.91 32.60 33.35 33.47 34.55 35.77 38.37 38.80 38.07 37.01 36.43 36.31 35.99 35.48 34.45 33.69 33.78 33.77 33.50 33.30 33.00 32.73 32.03 31.58 32.03 33.48 32.84 33.01 32.95
32.52 25.42 27.55 29.21 32.36 31.99 27.39 29.43 22.87 20.62 13.83 12.36 21.95 23.91 25.00 28.06 30.25 32.31 32.51 32.82 35.41 37.43 38.42 37.33 35.63 35.78 35.96 35.80 34.82 34.22 34.01 32.96 33.04 33.23 32.93 32.89 32.29 32.43 32.27 31.99 31.09 31.85 32.10 32.08
32.86 31.64 23.78 26.79 23.61 24.15 24.28 23.32 25.89 26.99 26.48 19.85 17.75 23.72 31.57 31.92 31.93 30.68 32.28 34.13 34.96 36.69 36.98 36.28 34.81 35.46 35.52 35.01 33.94 33.12 32.77 32.18 32.09 32.90 32.52 31.93 32.02 32.20 31.69 30.87 30.86 30.78 30.64 30.70
31.95 29.50 21.59 22.95 27.99 29.93 29.30 26.88 27.56 24.51 18.85 20.96 20.87 23.10 31.96 33.41 35.19 34.39 33.67 34.64 35.86 36.52 37.02 36.54 34.40 34.34 34.05 33.54 33.30 32.13 31.23 30.87 31.87 32.06 31.77 31.80 32.01 31.25 30.03 29.25 30.75 30.76 29.87 30.37
30.14 25.69 18.40 20.42 23.71 25.86 22.98 26.40 27.59 25.61 25.91 20.23 17.86 21.62 31.40 32.79 32.29 32.51 33.26 33.46 33.95 34.12 34.84 35.10 33.24 32.69 32.90 32.86 31.88 30.88 30.56 30.24 30.77 30.76 30.29 29.97 29.36 28.18 25.55 25.73 30.09 30.20 29.46 29.56
35.13 30.04 21.72 19.80 24.47 25.69 21.98 24.85 27.01 25.87 18.05 17.93 22.84 23.29 29.89 31.10 28.74 30.13 31.03 32.57 33.50 32.57 32.90 32.20 32.25 31.73 32.28 30.13 27.91 28.46 29.55 29.31 28.98 28.66 28.31 27.11 26.35 26.98 26.26 26.11 28.29 29.78 29.79 29.97
31.19 22.27 27.46 29.19 27.12 24.17 25.74 25.91 26.02 21.78 23.49 20.83 22.04 26.26 30.91 33.18 28.77 29.17 31.51 33.01 32.62 32.58 31.29 29.93 29.69 29.52 29.23 27.93 26.34 25.23 24.47 26.45 26.44 24.29 22.04 21.35 23.35 23.88 24.15 22.64 27.64 29.91 30.51 30.69
27.89 19.77 24.42 22.72 27.44 26.31 23.81 25.47 25.15 25.22 24.06 23.26 24.87 24.09 33.94 35.91 34.73 30.86 30.36 27.72 29.37 28.49 28.78 28.78 28.83 32.08 30.72 28.54 26.39 22.57 19.50 19.78 22.72 18.94 17.72 19.71 18.79 21.19 21.54 21.51 27.50 30.27 30.53 30.62
25.05 24.45 22.62 21.51 25.48 25.39 18.40 24.68 25.67 23.59 23.38 24.19 19.95 26.58 31.47 31.97 32.41 32.48 30.41 30.33 30.17 29.90 30.27 29.14 29.03 29.11 29.16 27.81 26.83 23.15 19.51 18.06 17.07 16.15 17.49 16.87 15.56 17.15 18.48 20.70 29.58 30.45 29.43 30.41
28.00 24.68 26.85 23.94 21.84 15.76 26.89 31.88 31.71 28.80 28.55 27.63 25.31 28.36 32.32 33.86 32.12 30.76 31.78 30.06 31.59 29.44 29.23 29.54 28.23 26.66 27.22 24.32 22.35 19.67 16.83 15.49 14.74 14.59 16.66 16.28 12.99 13.15 16.28 16.53 24.06 29.69 30.15 29.68
31.71 28.63 25.97 21.29 16.56 23.74 27.73 28.45 27.17 26.99 27.75 32.62 29.72 31.28 33.57 31.29 31.10 32.62 33.97 33.28 31.34 28.20 28.95 28.25 26.65 23.50 24.36 25.06 20.82 18.80 14.03 13.28 14.02 15.37 17.78 15.61 12.04 12.73 13.15 15.58 16.14 18.84 27.90 26.38
30.93 30.20 26.50 21.41 19.52 11.91 26.21 26.06 28.00 30.07 22.36 30.52 34.21 34.47 32.36 31.19 27.05 34.36 27.61 27.45 26.16 25.26 20.58 22.53 22.17 19.03 24.75 19.90 20.04 19.00 17.76 17.61 18.10 17.88 19.40 13.92 12.31 12.57 13.71 15.58 16.68 17.22 18.93 22.89
21.88 24.16 22.34 21.80 19.05 21.66 29.83 26.12 27.80 21.56 28.51 28.49 30.73 32.91 31.87 30.00 34.57 33.53 26.82 25.47 24.24 24.02 22.90 20.10 19.84 25.70 25.01 20.17 20.30 19.44 18.05 20.71 20.38 19.36 16.47 13.97 13.44 15.11 16.27 20.39 19.84 20.12 19.38 20.76
19.84 20.55 20.17 23.15 20.03 16.50 27.01 25.78 26.62 31.86 27.32 31.00 32.07 32.65 32.20 32.94 32.69 30.19 27.75 25.97 26.09 24.62 21.40 21.60 22.18 22.64 18.65 19.76 22.18 19.89 20.95 22.52 21.34 21.55 19.52 16.77 16.61 20.48 21.77 21.76 23.80 23.07 22.75 22.28
19.05 24.98 22.11 24.85 24.13 29.15 28.24 27.68 30.11 29.77 30.41 29.24 31.54 31.63 33.92 32.95 32.23 32.01 31.65 31.00 30.90 28.41 27.77 24.11 25.07 24.78 22.71 21.79 24.49 24.54 24.69 22.86 21.82 21.18 18.64 16.30 19.50 22.84 23.42 22.65 24.02 23.39 23.27 21.60
24.11 26.70 23.48 25.07 28.67 28.44 28.39 30.22 29.98 30.88 30.99 32.06 32.72 32.13 32.23 32.02 31.82 30.96 31.40 31.66 31.15 30.56 27.57 25.35 24.90 25.37 25.90 25.28 25.71 26.68 24.71 24.85 22.27 20.78 18.84 19.03 20.16 22.27 22.23 25.04 24.98 22.18 19.75 19.06
24.89 26.68 20.21 21.12 27.23 28.15 30.76 30.60 32.21 32.42 32.28 31.18 30.73 31.54 32.58 32.20 31.52 31.36 31.20 31.30 31.20 30.81 26.72 25.02 25.15 26.05 26.68 26.93 25.99 25.30 25.31 23.79 22.42 21.57 20.36 20.94 21.00 19.86 22.33 23.26 21.82 23.15 22.63 22.19
24.28 24.75 23.72 23.38 30.81 31.88 33.15 31.90 32.11 31.91 31.86 31.53 31.12 31.24 31.77 31.35 31.55 31.25 31.10 31.24 30.97 27.65 25.40 24.04 25.15 25.17 26.47 25.24 26.95 25.42 26.20 25.62 24.13 22.24 20.80 20.49 20.77 19.82 20.75 21.83 19.36 27.99 28.24 28.87
MSLP
1011.28 1011.41 1010.62 1010.22 1010.20 1009.39 1009.55 1009.73 1009.65 1009.67 1010.50 1010.88 1010.56 1009.63 1008.50 1007.87 1007.94 1008.06 1008.38 1008.65 1008.97 1009.36 1009.96 1010.99 1011.71 1012.19 1012.75 1013.41 1013.82 1014.06 1014.43 1014.68 1014.91 1015.10 1015.25 1015.36 1015.41 1015.07 1015.00 1014.78 1014.47 1014.39 1014.27 1014.19
1011.56 1010.67 1010.25 1009.91 1009.75 1009.90 1009.91 1010.16 1010.08 1010.30 1010.75 1011.17 1010.53 1009.41 1007.83 1007.17 1006.66 1007.04 1007.54 1008.21 1008.43 1009.02 1009.86 1010.96 1011.91 1012.47 1012.86 1013.39 1013.86 1014.14 1014.40 1014.62 1014.84 1015.13 1015.49 1015.54 1015.34 1015.06 1014.94 1014.55 1014.34 1014.12 1013.94 1013.90
1010.67 1010.13 1009.79 1009.99 1010.03 1010.20 1010.28 1010.42 1010.36 1010.65 1011.13 1011.24 1011.09 1009.28 1006.99 1005.77 1005.93 1006.22 1006.66 1007.29 1007.94 1008.59 1009.60 1010.72 1011.82 1012.40 1012.77 1013.45 1013.78 1014.19 1014.39 1014.59 1014.88 1015.19 1015.35 1015.37 1015.30 1015.11 1014.86 1014.63 1014.44 1014.22 1014.02 1013.87
1010.69 1010.24 1010.32 1010.53 1010.46 1010.63 1010.92 1010.49 1010.73 1011.15 1011.67 1011.83 1011.12 1009.61 1007.06 1005.99 1006.03 1006.39 1006.83 1007.40 1007.69 1008.19 1009.07 1010.35 1011.52 1012.18 1012.82 1013.45 1013.84 1014.19 1014.36 1014.65 1014.86 1015.06 1015.28 1015.47 1015.45 1015.28 1015.02 1014.76 1014.37 1014.13 1014.01 1013.75
1010.61 1010.91 1011.05 1011.00 1010.89 1010.76 1011.22 1011.22 1011.52 1011.86 1012.17 1012.13 1011.33 1010.64 1007.10 1005.94 1006.05 1006.19 1006.71 1007.16 1007.43 1008.00 1008.86 1010.06 1011.14 1011.89 1012.65 1013.35 1014.03 1014.24 1014.37 1014.58 1014.85 1014.99 1015.02 1015.20 1015.28 1015.15 1014.79 1014.72 1014.45 1014.24 1014.01 1013.78
1011.06 1011.43 1011.53 1011.44 1011.65 1011.61 1011.89 1012.14 1012.42 1012.75 1012.88 1012.73 1010.96 1010.30 1007.48 1005.99 1005.14 1005.15 1006.21 1007.06 1007.58 1008.28 1009.01 1010.01 1010.82 1011.77 1012.70 1013.44 1014.05 1014.30 1014.40 1014.54 1014.62 1014.82 1014.90 1015.03 1015.11 1014.98 1014.91 1014.76 1014.51 1014.22 1014.01 1013.79
1011.32 1011.52 1011.95 1012.01 1012.33 1012.56 1012.47 1012.81 1013.27 1013.92 1013.87 1012.51 1011.28 1010.46 1007.25 1005.45 1004.79 1004.78 1005.84 1006.90 1007.56 1008.29 1009.05 1009.95 1010.94 1011.95 1012.79 1013.47 1013.96 1014.31 1014.36 1014.47 1014.56 1014.68 1014.78 1014.81 1014.97 1015.01 1014.94 1014.76 1014.43 1014.08 1013.80 1013.49
1010.75 1011.87 1011.82 1012.02 1012.07 1012.24 1012.69 1012.64 1012.61 1012.93 1013.16 1012.72 1012.09 1009.94 1006.48 1005.29 1004.81 1005.04 1005.73 1006.61 1007.43 1008.30 1008.90 1009.83 1010.83 1011.66 1012.49 1013.30 1013.81 1014.15 1014.12 1014.25 1014.53 1014.67 1014.74 1014.79 1014.87 1014.90 1014.79 1014.64 1014.34 1013.90 1013.59 1013.19
1009.97 1011.25 1012.13 1012.34 1012.47 1012.86 1012.96 1012.86 1012.51 1012.92 1013.19 1012.75 1010.55 1008.40 1005.93 1005.57 1005.66 1005.99 1006.38 1006.85 1007.45 1008.01 1008.73 1009.60 1010.56 1011.40 1012.37 1013.21 1013.70 1013.98 1014.12 1014.33 1014.57 1014.70 1014.68 1014.74 1014.69 1014.62 1014.48 1014.19 1013.88 1013.48 1013.15 1012.78
1009.76 1011.02 1012.18 1012.75 1012.93 1012.98 1013.03 1012.87 1012.92 1013.10 1013.02 1012.26 1009.97 1008.35 1006.56 1006.01 1005.90 1006.34 1006.82 1007.12 1007.63 1007.99 1008.65 1009.46 1010.49 1011.36 1012.29 1012.98 1013.45 1013.71 1013.88 1014.12 1014.35 1014.47 1014.49 1014.45 1014.42 1014.34 1014.17 1013.94 1013.69 1013.36 1012.91 1012.54
1009.70 1010.97 1012.70 1012.91 1012.55 1012.19 1012.96 1012.94 1012.68 1012.40 1011.99 1011.42 1010.22 1007.36 1004.77 1004.55 1005.05 1005.81 1006.35 1006.85 1007.44 1007.93 1008.69 1009.32 1010.35 1011.17 1012.08 1012.74 1013.14 1013.39 1013.65 1013.99 1014.22 1014.25 1014.27 1014.31 1014.28 1014.21 1014.03 1013.83 1013.57 1013.20 1012.77 1012.35
1009.81 1010.48 1011.56 1011.65 1011.46 1011.50 1011.56 1011.77 1012.03 1012.00 1012.07 1011.39 1010.32 1007.33 1005.11 1004.57 1004.65 1005.37 1006.10 1006.78 1007.29 1007.92 1008.58 1009.30 1010.17 1010.97 1011.86 1012.56 1012.93 1013.33 1013.79 1014.05 1014.18 1014.19 1014.18 1014.23 1014.25 1014.17 1013.98 1013.71 1013.28 1012.87 1012.39 1011.97
1009.93 1011.11 1011.60 1011.75 1012.10 1011.83 1011.47 1011.31 1011.41 1011.64 1011.82 1011.01 1010.07 1007.47 1005.83 1005.44 1005.59 1006.01 1006.48 1007.17 1007.83 1008.41 1008.93 1009.61 1010.42 1011.14 1011.75 1012.47 1013.06 1013.44 1013.81 1014.04 1014.14 1014.09 1014.12 1014.30 1014.39 1014.19 1013.96 1013.52 1013.01 1012.53 1012.05 1011.53
1010.14 1010.92 1010.73 1010.56 1010.09 1010.02 1010.68 1010.42 1010.83 1011.20 1011.34 1010.60 1008.80 1007.55 1006.59 1006.38 1006.56 1006.80 1007.22 1007.61 1008.09 1008.63 1009.29 1009.78 1010.48 1011.09 1011.64 1012.35 1013.08 1013.45 1013.80 1014.06 1014.11 1013.99 1014.25 1014.45 1014.42 1014.03 1013.72 1013.30 1012.92 1012.29 1011.70 1011.04
1010.74 1011.16 1011.04 1010.42 1010.41 1010.02 1009.77 1009.63 1010.08 1010.36 1009.92 1009.71 1008.59 1007.82 1006.69 1006.73 1006.92 1007.27 1007.56 1008.00 1008.50 1008.86 1009.37 1009.86 1010.37 1011.06 1011.51 1012.31 1013.10 1013.38 1013.80 1014.08 1014.09 1014.22 1014.47 1014.54 1014.24 1013.81 1013.51 1013.13 1012.73 1012.10 1011.45 1010.74
1011.37 1011.38 1011.10 1010.53 1010.12 1009.78 1009.46 1008.96 1008.88 1009.10 1009.36 1008.81 1008.46 1007.37 1006.66 1006.07 1006.39 1007.06 1007.40 1008.01 1008.96 1008.94 1009.31 1009.76 1010.26 1010.90 1011.48 1011.99 1012.65 1013.33 1013.61 1013.94 1014.18 1014.35 1014.45 1014.56 1014.50 1014.05 1013.55 1013.16 1012.63 1012.02 1011.41 1010.66
1011.60 1011.70 1011.63 1010.65 1009.64 1009.67 1008.65 1006.67 1006.74 1007.24 1007.28 1007.42 1007.37 1006.26 1006.15 1005.88 1005.93 1006.40 1006.73 1008.06 1008.60 1008.52 1008.89 1009.45 1009.84 1010.32 1010.94 1011.36 1012.07 1012.86 1013.34 1013.85 1014.10 1014.25 1014.29 1014.32 1014.38 1014.35 1013.76 1013.28 1012.50 1011.87 1011.38 1010.54
1010.68 1011.33 1011.10 1010.35 1009.87 1008.59 1004.89 1003.80 1004.03 1004.59 1004.80 1005.20 1005.38 1005.26 1004.93 1004.94 1005.32 1005.97 1006.38 1007.06 1007.64 1008.27 1008.60 1008.86 1009.40 1009.89 1010.41 1010.99 1011.75 1012.41 1013.14 1013.64 1013.77 1014.11 1014.28 1013.97 1014.17 1014.26 1013.78 1013.32 1012.70 1012.02 1011.33 1010.69
1010.01 1010.45 1010.03 1009.91 1009.08 1006.27 1004.32 1003.44 1003.40 1003.57 1003.59 1003.69 1004.29 1004.36 1004.13 1005.07 1005.85 1005.81 1005.85 1006.15 1006.92 1007.76 1008.05 1008.24 1008.58 1009.33 1010.12 1010.77 1011.50 1012.40 1013.18 1013.38 1013.41 1013.76 1013.88 1013.78 1013.67 1013.96 1013.63 1013.10 1012.52 1012.02 1011.52 1010.91
1009.92 1009.65 1009.54 1009.67 1008.55 1006.47 1003.93 1003.19 1002.96 1003.23 1003.18 1002.18 1002.19 1002.04 1003.44 1004.72 1005.65 1005.29 1005.55 1006.12 1006.93 1007.77 1007.88 1008.23 1008.68 1009.39 1010.01 1010.65 1011.36 1012.35 1012.90 1013.10 1013.02 1013.10 1013.20 1013.48 1013.15 1013.55 1013.50 1013.06 1012.48 1012.09 1011.76 1011.27
1009.76 1009.58 1008.70 1008.67 1007.98 1005.53 1003.72 1003.35 1003.66 1003.77 1002.40 1001.49 1001.77 1001.80 1002.58 1003.73 1004.54 1004.89 1005.36 1006.06 1006.93 1007.45 1007.89 1008.27 1008.78 1009.12 1009.40 1010.18 1011.05 1011.72 1012.12 1012.02 1011.58 1012.13 1012.59 1013.08 1012.65 1012.99 1012.92 1012.94 1012.15 1012.08 1011.84 1011.32
1007.99 1008.57 1008.25 1008.09 1007.35 1005.48 1003.53 1004.10 1003.79 1002.30 1001.77 1001.08 1001.63 1002.02 1002.69 1003.32 1004.01 1004.69 1005.13 1005.72 1006.46 1007.18 1007.56 1007.91 1008.49 1008.91 1009.47 1009.79 1010.43 1010.82 1011.04 1010.58 1011.09 1011.56 1011.91 1012.52 1012.51 1012.27 1012.26 1012.59 1012.22 1011.78 1011.72 1011.43
1006.95 1005.65 1005.93 1005.75 1004.18 1003.07 1002.74 1002.32 1002.14 1002.17 1002.00 1001.62 1001.70 1002.33 1002.81 1003.19 1003.51 1003.92 1004.43 1005.00 1005.65 1006.42 1006.98 1007.38 1007.91 1008.41 1008.91 1009.30 1009.49 1009.76 1009.34 1010.13 1010.56 1011.04 1011.29 1011.77 1012.04 1011.83 1011.61 1011.76 1011.89 1011.78 1011.46 1011.24
1006.06 1005.33 1005.21 1004.94 1003.01 1002.62 1002.53 1002.25 1002.36 1002.35 1002.36 1001.92 1002.07 1002.55 1002.88 1003.06 1003.41 1003.83 1004.33 1004.76 1005.25 1005.73 1006.30 1006.62 1007.34 1007.82 1008.04 1008.26 1008.41 1008.18 1008.55 1009.12 1009.87 1010.25 1010.76 1011.06 1011.28 1011.24 1011.34 1011.57 1011.47 1011.32 1011.34 1011.45
1007.98 1007.12 1005.13 1004.28 1003.02 1002.68 1002.00 1001.59 1001.60 1002.05 1002.37 1002.23 1002.61 1002.91 1003.07 1003.31 1003.32 1003.75 1004.24 1004.56 1004.93 1005.32 1005.59 1005.99 1006.49 1006.81 1006.71 1006.89 1007.08 1007.28 1007.64 1008.24 1009.07 1009.54 1009.72 1010.38 1010.75 1010.83 1010.82 1010.70 1010.94 1011.21 1011.22 1010.93
1006.93 1006.20 1005.51 1004.07 1002.80 1002.03 1001.12 1000.61 1001.03 1001.68 1002.15 1002.32 1002.91 1003.11 1003.11 1003.24 1003.46 1003.74 1004.00 1004.23 1004.61 1005.07 1005.08 1005.50 1005.69 1005.79 1005.69 1006.02 1006.02 1006.21 1006.63 1007.09 1007.97 1008.78 1009.09 1009.23 1009.87 1010.39 1010.55 1010.67 1010.72 1010.53 1010.60 1010.79
Wind_Speed
6 5 10 9 10 8 4 5 5 6 3 3 10 15 14 10 12 10 10 9 10 9 10 9 7 7 7 6 4 5 2 3 3 2 3 2 3 4 4 4 6 6 5 5
3 11 9 3 5 11 2 4 7 2 6 2 6 13 15 12 11 15 14 10 9 9 10 9 8 8 6 6 5 4 3 4 3 3 2 2 3 4 4 5 6 7 6 6
6 1 4 3 2 3 4 7 5 2 4 7 6 9 6 3 3 1 1 7 9 10 13 11 9 8 7 6 5 3 3 3 3 2 2 3 3 4 3 4 4 4 6 6
9 3 4 3 4 7 4 1 3 3 1 3 4 7 5 6 7 6 6 7 8 9 11 11 9 8 7 6 5 2 3 2 1 2 2 3 3 6 4 6 4 6 6 6
3 5 5 4 2 8 2 2 2 1 3 4 4 1 10 4 7 8 9 8 9 10 11 10 10 9 7 7 4 2 2 0 2 3 3 3 5 4 5 5 7 8 7 8
2 1 3 2 4 3 7 4 2 1 1 1 10 7 6 6 6 7 9 7 8 9 10 9 8 8 6 7 4 2 1 1 3 3 4 4 6 6 7 8 8 7 8 9
3 4 2 2 5 2 4 4 1 3 2 7 3 0 10 3 1 6 10 10 10 10 10 9 9 7 7 7 5 3 2 1 3 4 4 5 6 6 7 8 8 10 8 8
7 5 10 8 2 6 7 4 4 8 4 3 3 8 8 4 7 8 9 10 10 10 9 9 9 8 8 7 5 3 1 2 3 4 5 5 6 3 4 6 8 8 9 9
6 5 2 3 4 2 5 4 1 4 1 4 6 8 5 6 4 6 6 4 6 10 10 10 9 8 7 6 5 4 1 0 2 3 3 4 5 5 6 9 10 8 10 10
2 2 1 3 0 2 1 3 3 2 3 4 4 4 8 8 10 9 9 9 9 7 9 9 8 8 7 6 5 4 2 1 2 3 3 4 5 6 6 7 9 11 11 11
5 7 3 4 8 9 4 3 3 1 3 5 1 8 5 9 12 14 11 10 9 9 9 8 8 8 8 6 6 4 3 2 3 3 4 5 5 6 6 7 9 10 12 12
1 4 5 9 4 3 3 6 6 5 6 3 3 8 2 4 7 9 8 8 6 8 7 7 9 9 8 7 5 4 2 0 2 3 4 5 6 6 7 8 10 10 11 11
5 3 2 1 1 1 6 7 4 3 1 7 7 7 2 3 5 6 8 7 5 6 6 5 8 8 7 7 6 5 3 2 1 2 4 5 6 6 6 6 9 9 9 10
7 2 6 7 2 4 6 8 12 7 4 5 10 4 2 3 5 4 4 6 7 7 7 5 7 7 7 6 5 5 4 2 1 3 4 5 5 6 7 7 8 9 9 9
5 5 2 11 5 2 4 5 13 17 16 11 6 14 14 6 8 8 8 5 4 7 6 6 6 6 6 6 5 4 3 3 1 1 3 5 6 6 6 6 7 9 9 8
1 3 3 7 12 9 11 11 11 18 16 16 16 17 8 7 6 5 9 4 8 8 8 8 7 7 8 8 7 6 5 4 2 1 5 5 4 6 6 6 7 8 9 8
7 5 4 5 2 3 10 19 21 9 8 13 17 15 3 8 10 9 7 8 11 10 9 8 10 10 9 9 8 8 6 3 3 3 4 4 3 6 6 6 7 8 10 8
10 5 6 1 2 6 7 3 15 23 16 17 3 5 13 15 6 5 5 7 10 8 8 8 7 7 7 6 5 5 4 4 4 3 5 4 2 4 5 4 5 7 8 8
5 7 3 4 4 7 7 5 7 10 12 20 16 17 17 5 2 9 11 10 9 7 7 6 6 6 6 8 7 6 4 5 4 5 5 5 1 4 4 5 4 4 5 5
5 3 7 3 4 7 3 2 1 3 5 2 11 20 9 9 4 6 2 4 4 5 3 5 5 4 7 6 8 7 7 6 7 6 6 5 2 2 4 6 4 3 3 4
4 2 10 6 4 9 5 3 4 3 6 2 3 5 11 7 5 4 3 2 3 5 7 4 4 9 8 8 8 8 6 11 6 5 5 4 3 3 3 5 3 3 4 4
11 9 5 4 6 12 6 5 7 3 2 5 4 3 7 5 6 4 5 4 5 5 3 5 6 6 5 7 9 7 10 7 6 6 5 4 4 2 0 3 4 3 3 4
6 7 7 11 8 1 8 1 5 0 3 2 6 3 5 4 4 3 1 3 5 6 6 5 7 6 6 8 10 10 9 7 6 6 6 4 4 3 3 2 2 3 3 2
3 2 3 3 8 10 8 6 5 5 2 4 4 4 3 3 3 5 3 4 4 4 5 5 7 7 9 10 13 14 7 8 8 8 6 5 6 5 4 2 1 1 1 2
4 9 3 6 7 6 8 11 7 9 7 4 3 5 8 6 7 5 4 5 5 6 3 5 7 8 12 10 13 12 9 9 8 8 7 6 5 4 4 3 4 2 2 3
5 7 3 4 8 5 5 4 7 10 9 8 6 4 5 5 7 4 6 5 4 5 3 4 8 8 10 9 11 10 12 13 11 9 7 7 6 4 4 4 1 2 4 2
Wind_Direction
200 209 218 203 219 236 58 323 307 86 88 219 231 260 256 246 204 203 221 206 199 171 149 141 143 131 131 132 135 101 79 51 40 359 342 335 308 319 309 298 310 313 301 300
151 235 230 266 216 234 227 270 264 73 136 155 280 274 268 241 224 198 200 222 204 158 138 146 152 153 166 150 146 111 80 49 29 31 342 282 309 283 287 287 277 265 264 265
209 166 97 173 165 172 226 220 245 160 188 226 297 275 234 208 197 117 223 196 208 175 154 155 167 168 163 170 114 94 71 47 35 17 318 310 301 303 310 309 315 313 313 307
237 182 160 176 220 172 224 97 103 111 174 242 180 277 282 183 200 197 213 224 219 168 147 154 172 170 161 131 113 115 70 33 341 358 338 323 297 305 303 307 301 313 304 292
198 161 191 181 214 175 198 91 121 131 240 34 225 100 267 95 207 190 191 204 187 150 147 160 166 164 134 125 133 154 107 342 9 354 354 324 303 295 307 305 310 312 312 308
66 345 297 42 62 11 140 105 115 286 254 323 221 167 270 194 225 171 156 181 157 149 148 142 145 129 144 137 171 153 128 347 22 360 341 327 314 319 318 312 309 307 307 303
138 189 102 183 89 41 212 147 83 343 4 223 13 40 245 202 292 151 155 169 169 156 153 163 152 153 187 158 154 191 159 325 12 353 341 346 328 313 305 307 306 306 299 293
175 256 169 187 215 191 194 192 185 198 191 210 75 232 255 30 119 83 116 161 163 164 165 168 174 167 155 154 175 186 75 13 359 352 345 329 312 302 302 299 298 294 290 289
185 203 87 24 20 38 185 202 188 102 97 65 207 263 267 144 142 130 146 147 176 171 168 166 156 148 151 171 181 176 174 52 356 347 329 316 313 310 295 294 294 296 293 295
299 121 222 123 304 131 146 297 100 316 169 247 275 264 239 202 190 186 184 191 198 188 165 166 158 155 157 168 175 172 143 63 8 336 327 323 311 298 297 305 303 303 306 305
176 152 111 119 204 180 143 266 248 125 206 186 187 257 215 201 185 184 188 186 186 177 179 168 159 158 160 167 177 163 88 30 331 334 335 331 311 307 315 310 311 307 306 301
222 150 183 207 131 340 208 198 200 156 239 237 144 268 339 39 143 152 167 163 149 150 162 168 162 156 162 180 172 150 148 245 301 336 345 325 312 312 304 303 305 309 306 304
170 211 180 263 334 186 214 193 212 100 104 206 151 255 344 35 83 95 134 150 166 174 172 161 150 167 172 181 172 165 178 224 313 357 353 318 304 300 292 289 308 313 311 302
139 203 202 189 117 122 193 200 195 172 185 171 216 273 246 215 192 159 191 199 201 205 206 197 182 180 181 166 164 171 191 199 248 18 334 305 291 294 294 296 307 312 301 303
155 203 220 270 260 245 245 185 198 210 219 198 212 215 241 201 202 207 205 212 235 245 226 202 192 186 171 171 176 175 192 210 184 70 291 278 279 286 291 301 318 307 305 314
277 218 187 263 242 219 240 227 214 219 230 258 273 269 234 252 207 189 209 181 240 235 232 218 200 185 194 192 192 187 198 212 166 205 260 274 304 301 313 317 317 319 320 322
153 159 139 253 320 149 280 228 217 194 193 200 227 236 249 246 248 229 219 204 228 231 218 213 204 198 196 193 180 190 191 179 189 221 267 278 316 319 325 320 322 341 336 334
159 180 172 191 179 223 234 255 217 216 219 214 210 204 206 225 232 229 213 198 219 218 224 224 203 189 186 170 161 138 146 199 190 233 257 264 342 310 312 320 314 342 346 352
167 185 173 187 218 300 288 193 166 170 244 225 225 239 231 173 149 267 226 207 217 204 221 212 185 169 157 167 158 151 182 213 183 227 237 242 151 297 305 314 305 302 325 328
188 244 175 140 240 222 290 142 108 144 297 334 224 233 176 142 183 250 208 178 188 199 194 194 168 147 158 174 155 161 203 215 211 215 219 228 180 266 295 287 296 276 299 302
157 191 204 192 236 283 233 165 73 109 232 125 307 200 142 164 204 186 148 123 171 184 190 169 169 185 188 154 158 186 199 224 204 186 178 224 209 235 248 294 290 302 311 335
166 167 191 192 205 255 143 76 184 210 317 130 68 47 140 123 152 177 187 191 188 202 210 186 177 203 185 165 169 191 216 219 177 179 179 220 222 221 323 293 304 325 346 0
200 182 178 193 212 269 209 185 215 17 226 106 115 139 153 192 189 157 216 238 228 213 211 184 196 198 190 188 189 203 226 180 180 176 196 193 215 208 212 194 304 326 349 24
320 237 233 100 234 228 212 248 222 205 229 128 99 132 196 241 271 267 274 269 254 237 214 179 182 211 213 200 205 219 183 177 178 189 197 195 197 197 191 240 206 156 23 356
264 322 204 274 294 312 249 232 196 211 217 207 225 217 231 232 256 244 254 253 248 244 209 170 196 219 229 198 210 207 191 166 189 198 183 198 199 201 193 180 177 193 236 165
189 208 228 253 220 216 265 245 175 187 197 210 202 244 242 205 242 258 267 257 241 236 226 206 220 224 236 206 215 202 193 181 183 197 197 189 183 190 190 180 212 226 176 221